Regional Weather Roundup
Issued by NWS Cleveland, OH

Home | Current Version | Previous Version | Graphics & Text | Print | Product List | Glossary On
Versions: 1 2 3 4 5 6 7 8 9 10 11 12 13 14 15 16 17 18 19 20 21 22 23 24 25 26 27 28 29 30 31 32 33 34 35 36 37 38 39 40 41 42 43 44 45 46 47 48 49 50
000
ASUS41 KCLE 300200
RWRCLE
OHIO REGIONAL WEATHER ROUNDUP
NATIONAL WEATHER SERVICE WILMINGTON, OH
1000 PM EDT FRI APR 29 2016

NOTE: "FAIR" INDICATES FEW OR NO CLOUDS BELOW 12,000 FEET WITH NO
SIGNIFICANT WEATHER AND/OR OBSTRUCTIONS TO VISIBILITY.

OHZ001>008-015>018-024>027-034-035-043-044-300300-
   NORTHWEST OHIO

CITY           SKY/WX    TMP DP  RH WIND       PRES   REMARKS
DEFIANCE       CLOUDY    50  40  68 E7        30.16R
FINDLAY        CLOUDY    48  39  71 NE8       30.15R
TOLEDO EXPRESS CLOUDY    47  38  71 E8        30.16R
TOLEDO EXEC    CLOUDY    47  39  74 E7        30.18R
LIMA           CLOUDY    49  43  80 E8        30.14R
$$

OHZ009>014-019>023-028>033-038-089-300300-
   NORTHEAST OHIO

CITY           SKY/WX    TMP DP  RH WIND       PRES   REMARKS
CLE-HOPKINS    MOCLDY    44  39  82 N6        30.19R
CLE-LAKEFRONT  LGT RAIN  45  38  76 N6        30.16R
CUY CO. ARPT   CLOUDY    43  37  81 NE5       30.16R
LORAIN-ELYRIA  CLOUDY    43  37  79 N3        30.17R
ASHTABULA      CLOUDY    39  36  89 CALM      30.14S
AKRON-CANTON   CLOUDY    45  40  82 NW7       30.14R
WOOSTER        NOT AVBL
MANSFIELD      CLOUDY    42  41  96 NE6       30.15R
YOUNGSTOWN     CLOUDY    41  39  93 NW6       30.13R
$$

OHZ042-051>053-060>062-070>072-077>081-300300-
  SOUTHWEST OHIO

CITY           SKY/WX    TMP DP  RH WIND       PRES   REMARKS
CINC-COVINGTON NOT AVBL
CINC-LUNKEN    FAIR      59  51  75 NE8       30.09R
HAMILTON       FAIR      58  50  75 N6        30.10R
DAYTON         NOT AVBL
WRIGHT-PAT AFB NOT AVBL
DAYTON GENERAL FAIR      54  46  74 NE10      30.10R
WILMINGTON     FAIR      54  49  83 NE12      30.09R
$$

OHZ036-037-039>041-045>050-054>059-063>069-073>076-082>088-300300-
  CENTRAL AND SOUTHEAST OHIO

CITY           SKY/WX    TMP DP  RH WIND       PRES   REMARKS
COLUMBUS       CLOUDY    51  44  77 N8        30.13R
OSU AIRPORT    CLOUDY    51  44  77 NE9       30.14R
BOLTON FIELD   NOT AVBL
RICKENBACK AFB NOT AVBL
NEWARK         CLOUDY    52  43  71 NE7       30.13R
MARION         CLOUDY    48  42  80 NE5       30.15R
LANCASTER      FAIR      52  47  83 N10       30.12R
ZANESVILLE     FAIR      51  44  77 N3        30.12R
NEW PHILLY     CLOUDY    47  42  83 NW5       30.13R
$$




USA.gov is the U.S. government's official web portal to all federal, state and local government web resources and services.